Location: Newark
(47.5500°N, 8.6167°E)
Time: 11:02:43
(UTC+00:00)

Envisat - Pass Details

Date: 31 January 2020
Orbit: 764 x 766 km, 98.1° (Epoch: 20 February)

Event Time Altitude Azimuth Distance (km) Brightness Sun altitude
Rises 17:05:17 0° 164° (SSE) 3,220 6.3 -7.3°
Reaches altitude 10° 17:07:34 10° 165° (SSE) 2,298 5.5 -7.6°
Maximum altitude 17:12:39 89° 258° (WSW) 773 3.1 -8.4°
Drops below altitude 10° 17:17:46 10° 346° (NNW) 2,314 5.5 -9.3°
Sets 17:20:05 0° 347° (NNW) 3,244 6.2 -9.6°
